H1 CPF 2 NER 2024 5 4 9 125 01 glonass127 H2 1106403 9127 37869 2024 5 4 0 0 0 2024 5 7 23 45 0 900 1 1 0 0 0 1 H9 10 0 60434 0.00000 0 -11722850.670 -22141570.533 4942306.893 10 0 60434 900.00000 0 -11396680.984 -21403816.508 8028863.942 10 0 60434 1800.00000 0 -10784646.515 -20405190.698 10960101.815 10 0 60434 2700.00000 0 -9865419.718 -19200038.165 13679482.253 10 0 60434 3600.00000 0 -8629732.349 -17847756.649 16134627.062 10 0 60434 4500.00000 0 -7081002.070 -16410269.699 18278301.614 10 0 60434 5400.00000 0 -5235436.116 -14949420.813 20069297.079 10 0 60434 6300.00000 0 -3121608.463 -13524395.713 21473197.079 10 0 60434 7200.00000 0 -779528.064 -12189277.942 22463016.579 10 0 60434 8100.00000 0 1740764.090 -10990836.941 23019703.106 10 0 60434 9000.00000 0 4381012.779 -9966638.039 23132492.501 10 0 60434 9900.00000 0 7076908.519 -9143550.642 22799113.573 10 0 60434 10800.00000 0 9760503.531 -8536714.988 22025838.142 10 0 60434 11700.00000 0 12362787.199 -8149009.532 20827375.099 10 0 60434 12600.00000 0 14816317.859 -7971041.164 19226609.273 10 0 60434 13500.00000 0 17057804.950 -7981659.546 17254188.192 10 0 60434 14400.00000 0 19030536.844 -8148975.754 14947962.187 10 0 60434 15300.00000 0 20686554.949 -8431844.775 12352285.788 10 0 60434 16200.00000 0 21988484.089 -8781752.123 9517190.976 10 0 60434 17100.00000 0 22910942.233 -9145027.596 6497445.468 10 0 60434 18000.00000 0 23441469.159 -9465294.817 3351511.947 10 0 60434 18900.00000 0 23580932.939 -9686054.316 140426.639 10 0 60434 19800.00000 0 23343394.581 -9753291.166 -3073382.037 10 0 60434 20700.00000 0 22755433.810 -9617995.930 -6227311.933 10 0 60434 21600.00000 0 21854961.950 -9238490.214 -9259818.465 10 0 60434 22500.00000 0 20689570.065 -8582455.465 -12111633.406 10 0 60434 23400.00000 0 19314480.966 -7628575.555 -14726945.493 10 0 60434 24300.00000 0 17790191.301 -6367719.756 -17054517.486 10 0 60434 25200.00000 0 16179903.951 -4803612.196 -19048715.378 10 0 60434 26100.00000 0 14546860.535 -2952956.020 -20670427.140 10 0 60434 27000.00000 0 12951688.573 -845004.146 -21887850.750 10 0 60434 27900.00000 0 11449877.422 1479407.347 -22677134.235 10 0 60434 28800.00000 0 10089491.560 3969323.574 -23022853.737 10 0 60434 29700.00000 0 8909219.388 6565571.587 -22918319.404 10 0 60434 30600.00000 0 7936840.844 9203017.095 -22365702.873 10 0 60434 31500.00000 0 7188178.701 11813081.243 -21375984.114 10 0 60434 32400.00000 0 6666577.028 14326410.470 -19968719.560 10 0 60434 33300.00000 0 6362927.197 16675586.049 -18171637.344 10 0 60434 34200.00000 0 6256237.898 18797758.525 -16020069.290 10 0 60434 35100.00000 0 6314722.043 20637096.038 -13556232.757 10 0 60434 36000.00000 0 6497351.254 22146944.009 -10828378.514 10 0 60434 36900.00000 0 6755808.814 23291606.613 -7889823.536 10 0 60434 37800.00000 0 7036755.283 24047677.150 -4797889.694 10 0 60434 38700.00000 0 7284308.382 24404864.166 -1612770.897 10 0 60434 39600.00000 0 7442630.301 24366281.827 1603647.727 10 0 60434 40500.00000 0 7458512.092 23948195.906 4788994.639 10 0 60434 41400.00000 0 7283845.785 23179239.561 7881616.932 10 0 60434 42300.00000 0 6877880.646 22099134.958 10821762.433 10 0 60434 43200.00000 0 6209169.828 20756976.883 13552716.931 10 0 60434 44100.00000 0 5257127.261 19209151.875 16021876.129 10 0 60434 45000.00000 0 4013131.295 17516980.557 18181733.651 10 0 60434 45900.00000 0 2481130.472 15744181.282 19990768.544 10 0 60434 46800.00000 0 677727.224 13954259.493 21414217.845 10 0 60434 47700.00000 0 -1368263.559 12207929.449 22424721.937 10 0 60434 48600.00000 0 -3616763.242 10560672.929 23002832.643 10 0 60434 49500.00000 0 -6017847.445 9060533.529 23137376.204 10 0 60434 50400.00000 0 -8513576.744 7746235.505 22825665.367 10 0 60434 51300.00000 0 -11040167.184 6645703.009 22073556.996 10 0 60434 52200.00000 0 -13530414.067 5775039.657 20895353.705 10 0 60434 53100.00000 0 -15916272.106 5138010.135 19313550.215 10 0 60434 54000.00000 0 -18131488.236 4726045.610 17358427.426 10 0 60434 54900.00000 0 -20114180.590 4518773.681 15067499.488 10 0 60434 55800.00000 0 -21809258.338 4485052.471 12484821.755 10 0 60434 56700.00000 0 -23170582.555 4584467.605 9660170.007 10 0 60434 57600.00000 0 -24162777.835 4769231.483 6648104.030 10 0 60434 58500.00000 0 -24762617.684 4986406.894 3506931.287 10 0 60434 59400.00000 0 -24959923.640 5180362.662 297588.998 10 0 60434 60300.00000 0 -24757937.711 5295358.228 -2917534.788 10 0 60434 61200.00000 0 -24173149.524 5278147.456 -6075818.368 10 0 60434 62100.00000 0 -23234582.591 5080490.049 -9115637.606 10 0 60434 63000.00000 0 -21982567.307 4661461.787 -11977585.916 10 0 60434 63900.00000 0 -20467050.594 3989462.576 -14605657.278 10 0 60434 64800.00000 0 -18745512.590 3043833.610 -16948366.929 10 0 60434 65700.00000 0 -16880578.160 1816011.329 -18959785.369 10 0 60434 66600.00000 0 -14937424.845 310165.757 -20600462.940 10 0 60434 67500.00000 0 -12981097.955 -1456706.961 -21838224.666 10 0 60434 68400.00000 0 -11073847.871 -3455244.195 -22648817.873 10 0 60434 69300.00000 0 -9272603.742 -5644710.832 -23016398.473 10 0 60434 70200.00000 0 -7626691.712 -7974486.465 -22933845.507 10 0 60434 71100.00000 0 -6175895.039 -10385983.044 -22402897.489 10 0 60434 72000.00000 0 -4948938.270 -12814911.461 -21434108.136 10 0 60434 72900.00000 0 -3962458.932 -15193800.507 -20046623.186 10 0 60434 73800.00000 0 -3220508.669 -17454660.910 -18267783.932 10 0 60434 74700.00000 0 -2714602.643 -19531681.115 -16132566.930 10 0 60434 75600.00000 0 -2424312.086 -21363840.615 -13682872.822 10 0 60434 76500.00000 0 -2318371.500 -22897330.671 -10966680.319 10 0 60434 77400.00000 0 -2356250.038 -24087681.080 -8037084.092 10 0 60434 78300.00000 0 -2490117.007 -24901504.890 -4951237.484 10 0 60434 79200.00000 0 -2667115.204 -25317789.746 -1769222.515 10 0 60434 80100.00000 0 -2831843.370 -25328684.325 1447129.219 10 0 60434 81000.00000 0 -2928941.108 -24939749.944 4635440.848 10 0 60434 81900.00000 0 -2905666.248 -24169670.100 7733995.859 10 0 60434 82800.00000 0 -2714355.972 -23049433.279 10682921.906 10 0 60434 83700.00000 0 -2314668.868 -21621025.970 13425330.747 10 0 60434 84600.00000 0 -1675515.027 -19935692.572 15908393.836 10 0 60434 85500.00000 0 -776594.904 -18051835.968 18084334.811 10 0 60435 0.00000 0 390515.684 -16032646.593 19911322.079 10 0 60435 900.00000 0 1821779.003 -13943556.716 21354247.883 10 0 60435 1800.00000 0 3500629.338 -11849626.723 22385379.080 10 0 60435 2700.00000 0 5398432.130 -9812965.882 22984872.802 10 0 60435 3600.00000 0 7475448.650 -7890294.421 23141146.448 10 0 60435 4500.00000 0 9682268.419 -6130744.041 22851097.216 10 0 60435 5400.00000 0 11961652.424 -4573985.574 22120167.275 10 0 60435 6300.00000 0 14250713.858 -3248759.294 20962252.986 10 0 60435 7200.00000 0 16483349.305 -2171867.539 19399458.766 10 0 60435 8100.00000 0 18592822.915 -1347671.013 17461698.431 10 0 60435 9000.00000 0 20514399.218 -768110.104 15186149.252 10 0 60435 9900.00000 0 22187917.341 -413251.522 12616566.413 10 0 60435 10800.00000 0 23560200.771 -252339.093 9802468.196 10 0 60435 11700.00000 0 24587202.366 -245306.739 6798204.803 10 0 60435 12600.00000 0 25235794.089 -344692.032 3661926.479 10 0 60435 13500.00000 0 25485124.697 -497871.424 454469.098 10 0 60435 14400.00000 0 25327485.818 -649523.824 -2761822.272 10 0 60435 15300.00000 0 24768646.948 -744218.518 -5924309.198 10 0 60435 16200.00000 0 23827642.078 -729017.118 -8971290.933 10 0 60435 17100.00000 0 22536013.954 -555977.487 -11843225.471 10 0 60435 18000.00000 0 20936545.380 -184450.897 -14483914.898 10 0 60435 18900.00000 0 19081529.357 416928.212 -16841629.654 10 0 60435 19800.00000 0 17030650.191 1268647.789 -18870147.277 10 0 60435 20700.00000 0 14848564.985 2379190.197 -20529682.815 10 0 60435 21600.00000 0 12602288.300 3744421.723 -21787690.426 10 0 60435 22500.00000 0 10358491.584 5347528.151 -22619518.573 10 0 60435 23400.00000 0 8180832.813 7159501.051 -23008904.476 10 0 60435 24300.00000 0 6127430.444 9140155.351 -22948297.255 10 0 60435 25200.00000 0 4248589.305 11239635.516 -22439003.101 10 0 60435 26100.00000 0 2584874.872 13400346.279 -21491149.841 10 0 60435 27000.00000 0 1165616.888 15559225.476 -20123472.426 10 0 60435 27900.00000 0 7904.268 17650261.839 -18362924.744 10 0 60435 28800.00000 0 -883888.279 19607150.171 -16244127.067 10 0 60435 29700.00000 0 -1518024.791 21365970.873 -13808661.877 10 0 60435 30600.00000 0 -1914790.363 22867780.160 -11104233.973 10 0 60435 31500.00000 0 -2105361.137 24061001.772 -8183713.526 10 0 60435 32400.00000 0 -2130213.604 24903520.081 -5104082.853 10 0 60435 33300.00000 0 -2037144.110 25364387.943 -1925309.362 10 0 60435 34200.00000 0 -1878985.443 25425079.515 1290831.789 10 0 60435 35100.00000 0 -1711119.351 25080238.078 4481961.370 10 0 60435 36000.00000 0 -1588891.605 24337890.407 7586302.270 10 0 60435 36900.00000 0 -1565039.165 23219121.718 10543864.922 10 0 60435 37800.00000 0 -1687237.590 21757227.549 13297589.908 10 0 60435 38700.00000 0 -1995870.743 19996380.210 15794427.148 10 0 60435 39600.00000 0 -2522114.927 17989866.902 17986332.850 10 0 60435 40500.00000 0 -3286415.900 15797973.377 19831167.450 10 0 60435 41400.00000 0 -4297420.850 13485600.659 21293479.898 10 0 60435 42300.00000 0 -5551408.586 11119712.355 22345165.823 10 0 60435 43200.00000 0 -7032241.112 8766716.215 22965989.318 10 0 60435 44100.00000 0 -8711838.802 6489885.605 23143960.268 10 0 60435 45000.00000 0 -10551160.560 4346924.700 22875561.253 10 0 60435 45900.00000 0 -12501650.265 2387775.223 22165820.238 10 0 60435 46800.00000 0 -14507092.194 652752.978 21028227.321 10 0 60435 47700.00000 0 -16505801.544 -828910.444 19484496.056 10 0 60435 48600.00000 0 -18433062.428 -2040061.432 17564172.084 10 0 60435 49500.00000 0 -20223715.145 -2976112.455 15304094.163 10 0 60435 50400.00000 0 -21814787.577 -3645003.533 12747715.191 10 0 60435 51300.00000 0 -23148062.831 -4066637.335 9944293.405 10 0 60435 52200.00000 0 -24172476.624 -4271809.739 6947966.551 10 0 60435 53100.00000 0 -24846243.733 -4300678.743 3816724.536 10 0 60435 54000.00000 0 -25138622.944 -4200834.292 611298.604 10 0 60435 54900.00000 0 -25031244.038 -4025049.045 -2606012.537 10 0 60435 55800.00000 0 -24518937.946 -3828804.406 -5772557.135 10 0 60435 56700.00000 0 -23610031.760 -3667696.731 -8826561.227 10 0 60435 57600.00000 0 -22326092.788 -3594834.738 -11708350.722 10 0 60435 58500.00000 0 -20701129.403 -3658340.478 -14361539.019 10 0 60435 59400.00000 0 -18780280.023 -3899062.619 -16734154.754 10 0 60435 60300.00000 0 -16618043.886 -4348602.233 -18779685.183 10 0 60435 61200.00000 0 -14276127.566 -5027738.197 -20458012.294 10 0 60435 62100.00000 0 -11820998.144 -5945322.185 -21736221.093 10 0 60435 63000.00000 0 -9321246.929 -7097692.874 -22589262.262 10 0 60435 63900.00000 0 -6844876.098 -8468636.325 -23000454.751 10 0 60435 64800.00000 0 -4456623.893 -10029895.586 -22961817.523 10 0 60435 65700.00000 0 -2215442.251 -11742208.494 -22474223.570 10 0 60435 66600.00000 0 -172233.875 -13556829.559 -21547373.403 10 0 60435 67500.00000 0 1632055.838 -15417470.703 -20199589.269 10 0 60435 68400.00000 0 3167912.385 -17262577.549 -18457435.355 10 0 60435 69300.00000 0 4418230.762 -19027843.555 -16355173.048 10 0 60435 70200.00000 0 5378760.336 -20648854.369 -13934063.863 10 0 60435 71100.00000 0 6058000.467 -22063749.608 -11241535.778 10 0 60435 72000.00000 0 6476554.999 -23215789.074 -8330231.511 10 0 60435 72900.00000 0 6665976.953 -24055715.188 -5256959.444 10 0 60435 73800.00000 0 6667156.135 -24543812.831 -2081569.571 10 0 60435 74700.00000 0 6528321.415 -24651581.303 1134222.030 10 0 60435 75600.00000 0 6302745.027 -24362950.178 4328036.233 10 0 60435 76500.00000 0 6046247.937 -23674990.495 7438037.570 10 0 60435 77400.00000 0 5814612.744 -22598094.210 10404121.271 10 0 60435 78300.00000 0 5661013.295 -21155617.019 13169058.524 10 0 60435 79200.00000 0 5633568.560 -19383001.750 15679579.259 10 0 60435 80100.00000 0 5773122.130 -17326420.574 17887373.537 10 0 60435 81000.00000 0 6111338.720 -15040993.327 19749994.691 10 0 60435 81900.00000 0 6669195.416 -12588655.880 21231649.459 10 0 60435 82800.00000 0 7455929.066 -10035765.913 22303862.528 10 0 60435 83700.00000 0 8468482.498 -7450543.316 22946005.151 10 0 60435 84600.00000 0 9691472.228 -4900448.534 23145679.643 10 0 60435 85500.00000 0 11097679.413 -2449604.271 22898953.689 10 0 60436 0.00000 0 12649044.863 -156364.237 22210440.645 10 0 60436 900.00000 0 14298129.763 1928874.597 21093223.576 10 0 60436 1800.00000 0 15989982.125 3765524.999 19568624.425 10 0 60436 2700.00000 0 17664337.223 5324256.640 17665819.729 10 0 60436 3600.00000 0 19258061.601 6587975.033 15421308.664 10 0 60436 4500.00000 0 20707742.378 7552292.572 12878240.629 10 0 60436 5400.00000 0 21952315.840 8225470.917 10085612.436 10 0 60436 6300.00000 0 22935626.652 8627835.535 7097347.790 10 0 60436 7200.00000 0 23608810.642 8790685.013 3971274.460 10 0 60436 8100.00000 0 23932400.245 8754739.021 768017.058 10 0 60436 9000.00000 0 23878062.116 8568188.589 -2450174.263 10 0 60436 9900.00000 0 23429890.937 8284429.876 -5620636.755 10 0 60436 10800.00000 0 22585201.539 7959576.877 -8681525.638 10 0 60436 11700.00000 0 21354782.302 7649858.917 -11573037.131 10 0 60436 12600.00000 0 19762595.689 7409014.631 -14238598.282 10 0 60436 13500.00000 0 17844935.563 7285795.157 -16625998.137 10 0 60436 14400.00000 0 15649074.480 7321685.204 -18688435.744 10 0 60436 15300.00000 0 13231456.613 7548941.764 -20385461.972 10 0 60436 16200.00000 0 10655511.883 7989036.707 -21683794.438 10 0 60436 17100.00000 0 7989183.611 8651572.088 -22557987.642 10 0 60436 18000.00000 0 5302274.654 9533716.371 -22990943.649 10 0 60436 18900.00000 0 2663724.918 10620186.957 -22974252.373 10 0 60436 19800.00000 0 138935.979 11883780.495 -22508354.382 10 0 60436 20700.00000 0 -2212743.587 13286428.374 -21602523.224 10 0 60436 21600.00000 0 -4340265.963 14780731.950 -20274668.343 10 0 60436 22500.00000 0 -6202770.655 16311911.165 -18550963.636 10 0 60436 23400.00000 0 -7771031.562 17820082.429 -16465310.543 10 0 60436 24300.00000 0 -9028405.655 19242767.674 -14058648.113 10 0 60436 25200.00000 0 -9971246.196 20517526.904 -11378125.621 10 0 60436 26100.00000 0 -10608766.543 21584601.774 -8476156.144 10 0 60436 27000.00000 0 -10962364.292 22389457.943 -5409371.712 10 0 60436 27900.00000 0 -11064438.356 22885118.986 -2237502.318 10 0 60436 28800.00000 0 -10956752.825 23034194.265 977797.718 10 0 60436 29700.00000 0 -10688420.133 22810516.864 4174152.101 10 0 60436 30600.00000 0 -10313591.317 22200324.753 7289669.727 10 0 60436 31500.00000 0 -9888952.602 21202937.977 10264133.310 10 0 60436 32400.00000 0 -9471134.523 19830905.951 13040147.255 10 0 60436 33300.00000 0 -9114142.462 18109620.921 15564224.014 10 0 60436 34200.00000 0 -8866915.477 16076415.529 17787789.892 10 0 60436 35100.00000 0 -8771114.185 13779183.069 19668093.366 10 0 60436 36000.00000 0 -8859228.310 11274577.943 21169001.026 10 0 60436 36900.00000 0 -9153080.997 8625870.206 22261668.478 10 0 60436 37800.00000 0 -9662790.638 5900541.392 22925075.747 10 0 60436 38700.00000 0 -10386232.350 3167718.593 23146418.892 10 0 60436 39600.00000 0 -11309021.233 495549.937 22921351.662 10 0 60436 40500.00000 0 -12405018.723 -2051373.325 22254073.203 10 0 60436 41400.00000 0 -13637342.431 -4414444.727 21157259.893 10 0 60436 42300.00000 0 -14959839.745 -6543222.773 19651841.597 10 0 60436 43200.00000 0 -16318966.624 -8397275.262 17766624.851 10 0 60436 44100.00000 0 -17655996.362 -9947612.508 15537767.872 10 0 60436 45000.00000 0 -18909469.036 -11177650.208 13008114.697 10 0 60436 45900.00000 0 -20017781.788 -12083661.324 10226398.435 10 0 60436 46800.00000 0 -20921813.164 -12674696.805 7246326.119 10 0 60436 47700.00000 0 -21567472.201 -12971976.631 4125560.466 10 0 60436 48600.00000 0 -21908064.732 -13007774.689 924616.321 10 0 60436 49500.00000 0 -21906375.894 -12823842.463 -2294308.004 10 0 60436 50400.00000 0 -21536378.569 -12469436.416 -5468542.163 10 0 60436 51300.00000 0 -20784492.524 -11999031.490 -8536174.007 10 0 60436 52200.00000 0 -19650337.397 -11469817.379 -11437273.521 10 0 60436 53100.00000 0 -18146944.060 -10939084.385 -14115084.780 10 0 60436 54000.00000 0 -16300411.924 -10461611.268 -16517160.471 10 0 60436 54900.00000 0 -14149023.743 -10087168.144 -18596414.393 10 0 60436 55800.00000 0 -11741853.128 -9858243.015 -20312068.848 10 0 60436 56700.00000 0 -9136922.224 -9808091.188 -21630476.103 10 0 60436 57600.00000 0 -6398986.720 -9959192.973 -22525795.892 10 0 60436 58500.00000 0 -3597041.837 -10322187.261 -22980514.124 10 0 60436 59400.00000 0 -801655.068 -10895327.791 -22985791.690 10 0 60436 60300.00000 0 1917761.067 -11664485.941 -22541636.077 10 0 60436 61200.00000 0 4495620.446 -12603699.924 -21656892.594 10 0 60436 62100.00000 0 6872665.962 -13676246.345 -20349056.054 10 0 60436 63000.00000 0 8998197.939 -14836187.350 -18643907.769 10 0 60436 63900.00000 0 10831935.228 -16030325.950 -16574986.548 10 0 60436 64800.00000 0 12345432.168 -17200484.717 -14182905.964 10 0 60436 65700.00000 0 13522994.145 -18286009.361 -11514533.331 10 0 60436 66600.00000 0 14362056.252 -19226389.536 -8622048.662 10 0 60436 67500.00000 0 14873012.857 -19963884.815 -5561904.115 10 0 60436 68400.00000 0 15078509.264 -20446044.304 -2393706.172 10 0 60436 69300.00000 0 15012229.410 -20628013.673 820956.021 10 0 60436 70200.00000 0 14717234.485 -20474533.221 4019712.211 10 0 60436 71100.00000 0 14243925.699 -19961544.368 7140618.581 10 0 60436 72000.00000 0 13647719.397 -19077339.035 10123347.895 10 0 60436 72900.00000 0 12986533.789 -17823205.894 12910339.919 10 0 60436 73800.00000 0 12318193.322 -16213548.590 15447891.327 10 0 60436 74700.00000 0 11697859.121 -14275472.799 17687165.924 10 0 60436 75600.00000 0 11175591.802 -12047860.565 19585108.127 10 0 60436 76500.00000 0 10794146.746 -9579970.817 21105244.755 10 0 60436 77400.00000 0 10587091.783 -6929623.694 22218362.311 10 0 60436 78300.00000 0 10577323.737 -4161042.500 22903049.204 10 0 60436 79200.00000 0 10776043.973 -1342440.338 23146094.520 10 0 60436 80100.00000 0 11182234.568 1456551.654 22942737.088 10 0 60436 81000.00000 0 11782656.725 4167511.458 22296760.701 10 0 60436 81900.00000 0 12552372.213 6725803.503 21220433.527 10 0 60436 82800.00000 0 13455767.689 9073002.630 19734291.845 10 0 60436 83700.00000 0 14448041.534 11159066.873 17866770.550 10 0 60436 84600.00000 0 15477093.894 12944170.758 15653685.152 10 0 60436 85500.00000 0 16485743.854 14400123.744 13137572.523 10 0 60437 0.00000 0 17414183.515 15511314.561 10366900.432 10 0 60437 900.00000 0 18202568.693 16275141.569 7395156.774 10 0 60437 1800.00000 0 18793637.413 16701908.054 4279837.398 10 0 60437 2700.00000 0 19135247.959 16814186.732 1081345.267 10 0 60437 3600.00000 0 19182727.339 16645676.457 -2138175.308 10 0 60437 4500.00000 0 18900929.639 16239597.977 -5316048.538 10 0 60437 5400.00000 0 18265914.385 15646694.917 -8390297.010 10 0 60437 6300.00000 0 17266170.500 14922923.755 -11300866.472 10 0 60437 7200.00000 0 15903330.289 14126930.704 -13990819.877 10 0 60437 8100.00000 0 14192339.537 13317423.324 -16407475.241 10 0 60437 9000.00000 0 12161073.099 12550549.978 -18503462.627 10 0 60437 9900.00000 0 9849409.501 11877400.467 -20237677.124 10 0 60437 10800.00000 0 7307801.625 11341736.311 -21576106.856 10 0 60437 11700.00000 0 4595402.671 10978049.403 -22492517.839 10 0 60437 12600.00000 0 1777826.112 10810033.463 -22968980.698 10 0 60437 13500.00000 0 -1075365.644 10849534.725 -22996227.939 10 0 60437 14400.00000 0 -3893337.373 11096027.179 -22573834.311 10 0 60437 15300.00000 0 -6606708.346 11536634.671 -21710216.847 10 0 60437 16200.00000 0 -9150215.266 12146698.206 -20422455.265 10 0 60437 17100.00000 0 -11465198.416 12890862.930 -18735937.370 10 0 60437 18000.00000 0 -13501806.578 13724636.763 -16683837.980 10 0 60437 18900.00000 0 -15220828.908 14596352.296 -14306443.455 10 0 60437 19800.00000 0 -16595078.495 15449446.480 -11650337.110 10 0 60437 20700.00000 0 -17610271.902 16224959.295 -8767463.632 10 0 60437 21600.00000 0 -18265370.967 16864143.837 -5714092.928 10 0 60437 22500.00000 0 -18572376.224 17311076.188 -2549705.527 10 0 60437 23400.00000 0 -18555584.641 17515154.247 664177.041 10 0 60437 24300.00000 0 -18250346.847 17433380.289 3865192.993 10 0 60437 25200.00000 0 -17701379.691 17032331.982 6991348.190 10 0 60437 26100.00000 0 -16960707.995 16289740.481 9982207.778 10 0 60437 27000.00000 0 -16085324.015 15195611.174 12780049.179 10 0 60437 27900.00000 0 -15134663.845 13752842.156 15330955.494 10 0 60437 28800.00000 0 -14168006.588 11977316.367 17585830.127 10 0 60437 29700.00000 0 -13241904.180 9897464.947 19501315.403 10 0 60437 30600.00000 0 -12407747.655 7553320.635 21040600.159 10 0 60437 31500.00000 0 -11709569.249 4995100.395 22174103.365 10 0 60437 32400.00000 0 -11182169.652 2281374.943 22880023.131 10 0 60437 33300.00000 0 -10849646.275 -523101.014 23144742.603 10 0 60437 34200.00000 0 -10724382.090 -3349810.741 22963086.384 10 0 60437 35100.00000 0 -10806536.168 -6129052.785 22338423.268 10 0 60437 36000.00000 0 -11084057.022 -8792570.485 21282613.174 10 0 60437 36900.00000 0 -11533219.006 -11276128.256 19815798.362 10 0 60437 37800.00000 0 -12119661.054 -13521930.880 17966041.233 10 0 60437 38700.00000 0 -12799886.657 -15480787.727 15768813.346 10 0 60437 39600.00000 0 -13523165.023 -17113933.264 13266342.770 10 0 60437 40500.00000 0 -14233756.419 -18394428.432 10506829.451 10 0 60437 41400.00000 0 -14873370.671 -19308083.784 7543540.868 10 0 60437 42300.00000 0 -15383757.103 -19853864.268 4433803.014 10 0 60437 43200.00000 0 -15709317.649 -20043756.685 1237904.244 10 0 60437 44100.00000 0 -15799632.573 -19902102.993 -1982068.025 10 0 60437 45000.00000 0 -15611790.765 -19464425.275 -5163435.597 10 0 60437 45900.00000 0 -15112423.682 -18775789.929 -8244158.939 10 0 60437 46800.00000 0 -14279353.727 -17888778.918 -11164062.780 10 0 60437 47700.00000 0 -13102783.585 -16861153.273 -13866032.190 10 0 60437 48600.00000 0 -11585972.377 -15753308.097 -16297153.671 10 0 60437 49500.00000 0 -9745366.291 -14625627.937 -18409776.535 10 0 60437 50400.00000 0 -7610174.995 -13535856.283 -20162471.343 10 0 60437 51300.00000 0 -5221409.187 -12536592.805 -21520864.331 10 0 60437 52200.00000 0 -2630418.198 -11673026.588 -22458329.528 10 0 60437 53100.00000 0 103011.481 -10981003.457 -22956523.404 10 0 60437 54000.00000 0 2912916.730 -10485510.882 -23005750.577 10 0 60437 54900.00000 0 5729681.688 -10199645.561 -22605152.914 10 0 60437 55800.00000 0 8482717.893 -10124107.576 -21762718.444 10 0 60437 56700.00000 0 11103186.991 -10247241.874 -20495110.499 10 0 60437 57600.00000 0 13526650.745 -10545623.836 -18827321.587 10 0 60437 58500.00000 0 15695536.579 -10985162.036 -16792160.269 10 0 60437 59400.00000 0 17561315.324 -11522668.902 -14429582.989 10 0 60437 60300.00000 0 19086300.672 -12107829.981 -11785885.950 10 0 60437 61200.00000 0 20244996.594 -12685485.667 -8912775.060 10 0 60437 62100.00000 0 21024938.714 -13198126.375 -5866334.238 10 0 60437 63000.00000 0 21426997.592 -13588493.656 -2705914.158 10 0 60437 63900.00000 0 21465134.874 -13802176.081 507035.213 10 0 60437 64800.00000 0 21165626.422 -13790089.771 3710164.391 10 0 60437 65700.00000 0 20565788.765 -13510739.292 6841432.506 10 0 60437 66600.00000 0 19712265.587 -12932164.719 9840300.304 10 0 60437 67500.00000 0 18658948.613 -12033494.512 12648885.594 10 0 60437 68400.00000 0 17464621.605 -10806040.910 15213060.118 10 0 60437 69300.00000 0 16190426.640 -9253893.727 17483468.524 10 0 60437 70200.00000 0 14897258.116 -7393989.281 19416452.144 10 0 60437 71100.00000 0 13643191.902 -5255652.498 20974862.401 10 0 60437 72000.00000 0 12481054.835 -2879631.395 22128750.806 10 0 60437 72900.00000 0 11456233.334 -316663.321 22855924.793 10 0 60437 73800.00000 0 10604809.859 2374369.287 23142360.779 10 0 60437 74700.00000 0 9952102.522 5128619.694 22982467.989 10 0 60437 75600.00000 0 9511666.912 7877707.042 22379198.724 10 0 60437 76500.00000 0 9284800.795 10552298.879 21344002.880 10 0 60437 77400.00000 0 9260572.297 13084742.585 19896626.691 10 0 60437 78300.00000 0 9416371.304 15411639.924 18064757.863 10 0 60437 79200.00000 0 9718962.722 17476260.580 15883521.659 10 0 60437 80100.00000 0 10125999.800 19230696.119 13394834.892 10 0 60437 81000.00000 0 10587936.563 20637665.511 10646627.398 10 0 60437 81900.00000 0 11050261.501 21671896.651 7691943.153 10 0 60437 82800.00000 0 11455960.503 22321024.896 4587935.907 10 0 60437 83700.00000 0 11748106.483 22585969.024 1394776.786 10 0 60437 84600.00000 0 11872466.644 22480766.394 -1825506.243 10 0 60437 85500.00000 0 11780016.409 22031871.683 -5010235.017 99